Weather History for Hebron, NE

Change the Weather History Date:

Friday, April 19, 2013

  Actual Average Record
Temperature  
Mean Temperature 40 °F -  
Max Temperature 53 °F 64 °F 90 °F (1955)
Min Temperature 29 °F 42 °F 22 °F (1956)
Degree Days  
Heating Degree Days 24    
Moisture  
Dew Point 25 °F    
Average Humidity 57    
Maximum Humidity 81    
Minimum Humidity 36    
Precipitation  
Precipitation 0.00 in - - ()
Sea Level Pressure  
Sea Level Pressure 30.01 in    
Wind  
Wind Speed 12 mph (NW)    
Max Wind Speed 20 mph    
Max Gust Speed 28 mph    
Visibility 10 miles    
Events      
Averages and records for this station are not official NWS values.
T = Trace of Precipitation, MM = Missing Value Source: NWS Daily Summary

Daily Weather History Graph

Daily Weather History Graph

Search for Another Location

Airport:

Trip Planner

Search our weather history database for the weather conditions in past years. The results will help you decide how hot, cold, wet, or windy it might be!

Date:

Astronomy

Apr. 19, 2013 Rise Set
Actual Time 6:46 AM CDT 8:13 PM CDT
Civil Twilight 6:17 AM CDT 8:41 PM CDT
Nautical Twilight 5:43 AM CDT 9:16 PM CDT
Astronomical Twilight 5:07 AM CDT 9:52 PM CDT
Moon 1:58 PM CDT (4/19) 3:02 AM CDT (4/19)
Length of Visible Light 14h 24m
Length of Day
13h 27m
First Quarter, 62% of the Moon is Illuminated
Apr 19
First Quarter
Apr 25
Full
May 2
Last Quarter
May 9
New
May 17
First Quarter

Hourly Weather History & Observations

Time (CDT) Temp. Windchill Dew Point Humidity Pressure Visibility Wind Dir Wind Speed Gust Speed Precip Events Conditions
12:15 AM 34.0 °F 24.2 °F 25.7 °F 72% 29.99 in 10.0 mi NW 15.0 mph 18.4 mph N/A   Mostly Cloudy
12:35 AM 33.8 °F 25.3 °F 25.2 °F 71% 29.98 in 10.0 mi WNW 11.5 mph 17.3 mph N/A   Scattered Clouds
12:55 AM 33.6 °F 24.6 °F 25.7 °F 73% 29.98 in 10.0 mi WNW 12.7 mph 21.9 mph N/A   Clear
1:15 AM 33.1 °F 23.9 °F 25.5 °F 74% 29.98 in 10.0 mi WNW 12.7 mph 18.4 mph N/A   Clear
1:35 AM 32.9 °F 24.1 °F 25.5 °F 74% 29.99 in 10.0 mi WNW 11.5 mph - N/A   Clear
1:55 AM 32.2 °F 25.0 °F 25.5 °F 76% 29.98 in 10.0 mi WNW 8.1 mph - N/A   Clear
2:15 AM 32.0 °F 24.2 °F 25.7 °F 78% 29.98 in 10.0 mi WNW 9.2 mph - N/A   Clear
2:35 AM 32.0 °F 23.0 °F 25.3 °F 76% 29.97 in 10.0 mi WNW 11.5 mph - N/A   Clear
2:55 AM 32.0 °F 22.5 °F 25.0 °F 75% 29.97 in 10.0 mi WNW 12.7 mph 17.3 mph N/A   Clear
3:15 AM 32.0 °F 22.5 °F 24.6 °F 74% 29.97 in 10.0 mi WNW 12.7 mph - N/A   Clear
3:35 AM 32.0 °F 23.0 °F 24.3 °F 73% 29.97 in 10.0 mi WNW 11.5 mph 19.6 mph N/A   Clear
3:55 AM 32.0 °F 22.5 °F 23.9 °F 72% 29.97 in 10.0 mi WNW 12.7 mph 18.4 mph N/A   Clear
4:15 AM 32.0 °F 23.0 °F 24.3 °F 73% 29.97 in 10.0 mi WNW 11.5 mph - N/A   Clear
4:35 AM 31.8 °F 22.8 °F 23.9 °F 73% 29.97 in 10.0 mi WNW 11.5 mph 16.1 mph N/A   Clear
4:55 AM 31.5 °F 22.3 °F 23.9 °F 74% 29.98 in 10.0 mi WNW 11.5 mph - N/A   Clear
5:15 AM 31.1 °F 22.4 °F 23.9 °F 75% 29.98 in 10.0 mi WNW 10.4 mph - N/A   Clear
5:55 AM 30.2 °F 22.6 °F 23.9 °F 77% 29.99 in 10.0 mi West 8.1 mph - N/A   Clear
6:15 AM 29.7 °F 21.3 °F 24.4 °F 81% 29.99 in 10.0 mi WNW 9.2 mph - N/A   Clear
6:35 AM 30.0 °F 21.7 °F 24.3 °F 79% 29.99 in 10.0 mi West 9.2 mph - N/A   Clear
6:55 AM 30.0 °F 21.7 °F 23.9 °F 78% 30.00 in 10.0 mi West 9.2 mph - N/A   Clear
7:15 AM 31.1 °F 21.9 °F 23.2 °F 72% 30.00 in 10.0 mi WNW 11.5 mph - N/A   Clear
7:35 AM 31.3 °F 22.7 °F 23.9 °F 74% 30.01 in 10.0 mi West 10.4 mph - N/A   Clear
7:55 AM 32.0 °F 22.5 °F 24.6 °F 74% 30.00 in 10.0 mi West 12.7 mph - N/A   Clear
8:15 AM 32.7 °F 25.0 °F 24.8 °F 73% 30.00 in 10.0 mi WNW 9.2 mph - N/A   Clear
8:35 AM 34.2 °F 26.8 °F 23.9 °F 66% 30.00 in 10.0 mi WNW 9.2 mph 17.3 mph N/A   Clear
8:55 AM 35.1 °F 26.4 °F 23.7 °F 63% 30.00 in 10.0 mi WNW 12.7 mph 18.4 mph N/A   Clear
9:15 AM 36.0 °F 27.5 °F 23.7 °F 61% 30.00 in 10.0 mi NW 12.7 mph - N/A   Clear
9:55 AM 38.8 °F 31.2 °F 24.4 °F 56% 29.99 in 10.0 mi NW 12.7 mph - N/A   Clear
10:15 AM 39.7 °F 32.7 °F 23.2 °F 52% 29.99 in 10.0 mi NW 11.5 mph 20.7 mph N/A   Scattered Clouds
10:35 AM 41.0 °F 33.5 °F 21.9 °F 47% 30.00 in 10.0 mi WNW 13.8 mph 19.6 mph N/A   Scattered Clouds
10:55 AM 42.1 °F 35.7 °F 22.3 °F 45% 30.00 in 10.0 mi WNW 11.5 mph - N/A   Mostly Cloudy
11:15 AM 42.8 °F 37.0 °F 23.2 °F 46% 30.00 in 10.0 mi WNW 10.4 mph 18.4 mph N/A   Mostly Cloudy
11:35 AM 44.1 °F 37.7 °F 24.4 °F 46% 30.01 in 10.0 mi West 12.7 mph 18.4 mph N/A   Overcast
11:55 AM 45.5 °F 39.6 °F 24.8 °F 44% 30.01 in 10.0 mi WNW 12.7 mph 20.7 mph N/A   Scattered Clouds
12:15 PM 45.9 °F 39.7 °F 21.9 °F 39% 30.01 in 10.0 mi NW 13.8 mph 23.0 mph N/A   Clear
12:35 PM 46.9 °F - 24.6 °F 42% 30.00 in 10.0 mi NNW 16.1 mph 23.0 mph N/A   Clear
12:55 PM 47.8 °F - 26.2 °F 43% 30.00 in 10.0 mi NW 13.8 mph 19.6 mph N/A   Clear
1:15 PM 48.4 °F - 26.2 °F 42% 30.00 in 10.0 mi WNW 11.5 mph 21.9 mph N/A   Clear
1:35 PM 49.1 °F - 27.9 °F 44% 30.00 in 10.0 mi NW 12.7 mph 20.7 mph N/A   Clear
1:55 PM 48.9 °F - 27.7 °F 44% 30.00 in 10.0 mi NW 15.0 mph 20.7 mph N/A   Mostly Cloudy
2:15 PM 49.5 °F - 27.9 °F 43% 30.00 in 10.0 mi NW 19.6 mph 27.6 mph N/A   Overcast
2:35 PM 50.4 °F - 28.4 °F 43% 30.00 in 10.0 mi NW 17.3 mph 24.2 mph N/A   Mostly Cloudy
2:55 PM 51.3 °F - 28.4 °F 41% 30.00 in 10.0 mi NW 18.4 mph 25.3 mph N/A   Scattered Clouds
3:15 PM 50.4 °F - 28.8 °F 43% 30.00 in 10.0 mi NW 12.7 mph 18.4 mph N/A   Mostly Cloudy
3:35 PM 52.0 °F - 28.8 °F 41% 30.00 in 10.0 mi NW 13.8 mph 21.9 mph N/A   Mostly Cloudy
3:55 PM 52.7 °F - 29.1 °F 40% 30.00 in 10.0 mi NNW 13.8 mph 21.9 mph N/A   Overcast
4:15 PM 52.0 °F - 27.9 °F 39% 29.99 in 10.0 mi NNW 17.3 mph 23.0 mph N/A   Mostly Cloudy
4:35 PM 51.6 °F - 27.5 °F 39% 30.00 in 10.0 mi NNW 15.0 mph 20.7 mph N/A   Scattered Clouds
4:55 PM 52.3 °F - 27.9 °F 39% 30.00 in 10.0 mi NNW 15.0 mph 20.7 mph N/A   Scattered Clouds
5:15 PM 52.5 °F - 26.1 °F 36% 30.01 in 10.0 mi NNW 18.4 mph 23.0 mph N/A   Scattered Clouds
5:35 PM 49.6 °F - 25.5 °F 39% 30.01 in 10.0 mi NNW 16.1 mph 20.7 mph N/A   Scattered Clouds
5:55 PM 50.0 °F - 26.2 °F 40% 30.02 in 10.0 mi NNW 10.4 mph - N/A   Mostly Cloudy
6:15 PM 50.0 °F - 26.6 °F 40% 30.02 in 10.0 mi NNW 11.5 mph 19.6 mph N/A   Scattered Clouds
6:35 PM 50.5 °F - 25.5 °F 38% 30.02 in 10.0 mi NNW 13.8 mph 20.7 mph N/A   Mostly Cloudy
6:55 PM 49.3 °F - 25.3 °F 39% 30.03 in 10.0 mi North 12.7 mph - N/A   Scattered Clouds
7:15 PM 49.3 °F - 25.9 °F 40% 30.03 in 10.0 mi NNW 9.2 mph - N/A   Clear
7:35 PM 48.4 °F - 26.1 °F 42% 30.03 in 10.0 mi North 8.1 mph - N/A   Clear
7:55 PM 47.3 °F - 25.9 °F 43% 30.04 in 10.0 mi North 8.1 mph - N/A   Clear
8:15 PM 46.0 °F 43.9 °F 25.9 °F 45% 30.04 in 10.0 mi North 4.6 mph - N/A   Clear
8:35 PM 44.6 °F 41.4 °F 26.2 °F 49% 30.05 in 10.0 mi North 5.8 mph - N/A   Clear
8:55 PM 43.7 °F 40.3 °F 26.1 °F 50% 30.05 in 10.0 mi NNE 5.8 mph - N/A   Clear
9:15 PM 41.4 °F 37.6 °F 27.1 °F 57% 30.07 in 10.0 mi NNE 5.8 mph - N/A   Clear
9:35 PM 39.9 °F 37.8 °F 27.0 °F 60% 30.08 in 10.0 mi NE 3.5 mph - N/A   Clear
9:55 PM 37.8 °F - 27.0 °F 65% 30.09 in 10.0 mi Calm Calm - N/A   Clear
10:15 PM 37.9 °F - 26.6 °F 64% 30.09 in 10.0 mi Calm Calm - N/A   Clear
10:35 PM 37.6 °F 35.1 °F 26.4 °F 64% 30.10 in 10.0 mi ENE 3.5 mph - N/A   Clear
10:55 PM 37.0 °F - 26.2 °F 65% 30.10 in 10.0 mi Calm Calm - N/A   Clear
11:15 PM 35.6 °F 31.7 °F 25.9 °F 68% 30.10 in 10.0 mi East 4.6 mph - N/A   Clear
11:35 PM 33.8 °F 30.8 °F 25.7 °F 72% 30.11 in 10.0 mi ESE 3.5 mph - N/A   Clear
11:55 PM 35.4 °F 31.5 °F 24.8 °F 65% 30.10 in 10.0 mi ENE 4.6 mph - N/A   Clear